Location: Ames
(42.0350°N, 93.6200°W)
Time: 03:42:46
(UTC-06:00)

ISS - All Passes

Search period start: 29 November 2014 00:00
Search period end: 09 December 2014 00:00
Orbit: 407 x 417 km, 51.6° (Epoch: 29 November)

Date Brightness Start Highest point End Pass type
(mag) Time Alt. Az. Time Alt. Az. Time Alt. Az.
29 Nov - 00:51:41 10° NW 00:53:59 18° N 00:56:18 10° NE night (unlit)
29 Nov - 02:29:17 10° NW 02:31:34 17° N 02:33:50 10° NE night (unlit)
29 Nov - 04:05:36 10° NW 04:08:48 47° NNE 04:11:59 10° ESE visible
29 Nov - 05:42:38 10° W 05:45:15 22° SW 05:47:50 10° S visible
29 Nov - 20:49:48 10° SE 20:50:43 11° SE 20:51:37 10° ESE night (unlit)
29 Nov - 22:23:35 10° SW 22:26:52 88° NW 22:30:10 10° NE night (unlit)
30 Nov - 00:01:17 10° WNW 00:03:53 21° NNW 00:06:28 10° NE night (unlit)
30 Nov - 01:39:19 10° NW 01:41:25 16° N 01:43:30 10° NE night (unlit)
30 Nov - 03:15:48 10° NW 03:18:48 31° NNE 03:21:47 10° E night (unlit)
30 Nov - 04:52:23 10° WNW 04:55:29 38° SW 04:58:34 10° SSE visible
30 Nov - 21:33:48 10° SW 21:37:00 51° SE 21:40:12 10° ENE night (unlit)
30 Nov - 23:10:54 10° W 23:13:46 27° NNW 23:16:39 10° NE night (unlit)
01 Dec - 00:49:10 10° NW 00:51:13 15° N 00:53:16 10° NE night (unlit)
01 Dec - 02:26:00 10° NW 02:28:43 23° NNE 02:31:26 10° ENE night (unlit)
01 Dec - 04:02:20 10° WNW 04:05:37 72° SW 04:08:54 10° SE visible
01 Dec - 20:44:17 10° SSW 20:47:09 28° SE 20:50:01 10° ENE night (unlit)
01 Dec - 22:20:35 10° W 22:23:41 38° NNW 22:26:49 10° NE night (unlit)
01 Dec - 23:58:50 10° NW 00:01:00 16° N 00:03:10 10° NE night (unlit)
02 Dec - 01:36:07 10° NW 01:38:33 19° NNE 01:40:59 10° ENE night (unlit)
02 Dec - 03:12:23 10° NW 03:15:40 65° NNE 03:18:56 10° ESE night (unlit)
02 Dec - 04:49:58 10° W 04:51:57 15° SW 04:53:55 10° SSW visible
02 Dec - 19:55:14 10° S 19:57:20 16° SE 19:59:26 10° E night (unlit)
02 Dec - 21:30:22 10° WSW 21:33:38 62° NNW 21:36:54 10° NE night (unlit)
02 Dec - 23:08:21 10° WNW 23:10:46 19° NNW 23:13:10 10° NE night (unlit)
03 Dec - 00:46:08 10° NW 00:48:19 16° N 00:50:30 10° NE night (unlit)
03 Dec - 02:22:28 10° NW 02:25:36 40° NNE 02:28:44 10° E night (unlit)
03 Dec - 03:59:18 10° WNW 04:02:08 26° SW 04:04:56 10° SSE night (unlit)
03 Dec - 20:40:20 10° SW 20:43:36 76° SE 20:46:54 10° ENE night (unlit)
03 Dec - 22:17:50 10° WNW 22:20:31 23° NNW 22:23:13 10° NE night (unlit)
03 Dec - 23:55:58 10° NW 23:58:01 15° N 00:00:05 10° NE night (unlit)
04 Dec - 01:32:33 10° NW 01:35:27 28° NNE 01:38:21 10° E night (unlit)
04 Dec - 03:09:01 10° WNW 03:12:12 48° SW 03:15:23 10° SE night (unlit)
04 Dec - 19:50:30 10° SSW 19:53:37 41° SE 19:56:44 10° ENE visible
04 Dec - 21:27:20 10° W 21:30:18 30° NNW 21:33:17 10° NE night (unlit)
04 Dec - 23:05:37 10° NW 23:07:42 16° N 23:09:46 10° NE night (unlit)
05 Dec - 00:42:36 10° NW 00:45:13 21° NNE 00:47:49 10° ENE night (unlit)
05 Dec - 02:18:53 10° NW 02:22:11 88° SW 02:25:28 10° SE night (unlit)
05 Dec - 03:57:49 10° WSW 03:58:18 10° SW 03:58:48 10° SW night (unlit)
05 Dec - 19:01:00 10° S 19:03:39 23° SE 19:06:19 10° E visible
05 Dec - 20:36:55 10° WSW 20:40:06 45° NNW 20:43:17 10° NE night (unlit)
05 Dec - 22:15:05 10° NW 22:17:20 17° N 22:19:35 10° NE night (unlit)
05 Dec - 23:52:33 10° NW 23:54:53 18° NNE 23:57:13 10° ENE night (unlit)
06 Dec - 01:28:49 10° NW 01:32:04 54° NNE 01:35:17 10° ESE night (unlit)
06 Dec - 03:06:03 10° W 03:08:26 19° SW 03:10:48 10° S night (unlit)
06 Dec - 18:12:09 10° SSE 18:13:43 13° SE 18:15:18 10° ESE visible
06 Dec - 19:46:38 10° WSW 19:49:56 76° NNW 19:53:14 10° NE visible
06 Dec - 21:24:27 10° WNW 21:26:58 20° NNW 21:29:29 10° NE night (unlit)
06 Dec - 23:02:23 10° NW 23:04:30 16° N 23:06:38 10° NE night (unlit)
07 Dec - 00:38:47 10° NW 00:41:51 34° NNE 00:44:53 10° E night (unlit)
07 Dec - 02:15:27 10° WNW 02:18:27 33° SW 02:21:25 10° SSE night (unlit)
07 Dec - 18:56:33 10° SW 18:59:47 60° SE 19:03:03 10° ENE visible
07 Dec - 20:33:48 10° WNW 20:36:37 25° NNW 20:39:25 10° NE night (unlit)
07 Dec - 22:12:01 10° NW 22:14:04 15° N 22:16:07 10° NE night (unlit)
07 Dec - 23:48:44 10° NW 23:51:32 25° NNE 23:54:19 10° ENE night (unlit)
08 Dec - 01:25:07 10° WNW 01:28:22 61° SW 01:31:36 10° SE night (unlit)
08 Dec - 18:06:42 10° SSW 18:09:41 32° SE 18:12:40 10° ENE visible
08 Dec - 19:43:13 10° W 19:46:16 35° NNW 19:49:21 10° NE visible
08 Dec - 21:21:28 10° NW 21:23:36 16° N 21:25:44 10° NE night (unlit)
08 Dec - 22:58:37 10° NW 23:01:08 20° NNE 23:03:38 10° ENE night (unlit)
